TimeCST,TemperatureF,Dew PointF,Humidity,Sea Level PressureIn,VisibilityMPH,Wind Direction,Wind SpeedMPH,Gust SpeedMPH,PrecipitationIn,Events,Conditions,WindDirDegrees,DateUTC
12:53 AM,18.0,14.0,84,30.54,10.0,Calm,Calm,-,N/A,,Clear,0,2013-11-29 06:53:00
1:53 AM,18.0,12.0,78,30.54,10.0,Calm,Calm,-,N/A,,Clear,0,2013-11-29 07:53:00
2:53 AM,21.0,14.0,74,30.55,10.0,Calm,Calm,-,N/A,,Clear,0,2013-11-29 08:53:00
3:53 AM,24.1,16.0,71,30.53,10.0,SE,3.5,-,N/A,,Clear,140,2013-11-29 09:53:00
4:53 AM,23.0,15.1,72,30.54,10.0,SE,4.6,-,N/A,,Clear,140,2013-11-29 10:53:00
5:53 AM,24.1,16.0,71,30.53,10.0,SE,4.6,-,N/A,,Clear,130,2013-11-29 11:53:00
6:53 AM,23.0,15.1,72,30.54,10.0,SE,3.5,-,N/A,,Clear,130,2013-11-29 12:53:00
7:53 AM,24.1,17.1,75,30.53,10.0,SE,5.8,-,N/A,,Clear,130,2013-11-29 13:53:00
8:53 AM,28.0,19.0,69,30.53,10.0,SE,5.8,-,N/A,,Clear,140,2013-11-29 14:53:00
9:53 AM,33.1,21.0,61,30.51,10.0,SE,6.9,-,N/A,,Clear,130,2013-11-29 15:53:00
10:53 AM,37.9,21.9,53,30.49,10.0,SE,9.2,-,N/A,,Clear,130,2013-11-29 16:53:00
11:53 AM,43.0,24.1,47,30.44,10.0,SSE,9.2,-,N/A,,Clear,150,2013-11-29 17:53:00
12:53 PM,46.0,25.0,44,30.40,10.0,South,11.5,-,N/A,,Clear,170,2013-11-29 18:53:00
1:53 PM,48.0,26.1,42,30.36,10.0,SSE,11.5,-,N/A,,Clear,160,2013-11-29 19:53:00
2:53 PM,48.9,26.1,41,30.32,10.0,SE,10.4,-,N/A,,Clear,140,2013-11-29 20:53:00
3:53 PM,48.0,26.1,42,30.31,10.0,SSE,10.4,-,N/A,,Clear,150,2013-11-29 21:53:00
4:53 PM,42.1,26.1,53,30.30,10.0,SE,6.9,-,N/A,,Clear,140,2013-11-29 22:53:00
5:53 PM,39.9,26.1,58,30.29,10.0,SE,6.9,-,N/A,,Clear,130,2013-11-29 23:53:00
6:53 PM,37.9,26.1,62,30.30,10.0,South,3.5,-,N/A,,Clear,180,2013-11-30 00:53:00
7:53 PM,33.1,25.0,72,30.30,10.0,Calm,Calm,-,N/A,,Clear,0,2013-11-30 01:53:00
8:53 PM,33.1,26.1,75,30.29,10.0,South,10.4,-,N/A,,Clear,170,2013-11-30 02:53:00
9:53 PM,34.0,25.0,70,30.27,10.0,South,6.9,-,N/A,,Clear,180,2013-11-30 03:53:00
10:53 PM,33.1,24.1,70,30.27,10.0,Calm,Calm,-,N/A,,Clear,0,2013-11-30 04:53:00
11:53 PM,32.0,21.9,66,30.25,10.0,SSE,4.6,-,N/A,,Clear,150,2013-11-30 05:53:00